Regional Weather Roundup
Issued by NWS Jackson, KY

Home | Current Version | Previous Version | Text Only | Print | Product List | Glossary On
Versions: 1 2 3 4 5 6 7 8 9 10 11 12 13 14 15 16 17 18 19 20 21 22 23 24 25 26 27 28
000
ASUS43 KJKL 070110
RWRJKL

EAST KENTUCKY HOURLY WEATHER ROUNDUP
NATIONAL WEATHER SERVICE JACKSON KY
900 PM EDT FRI MAY 06 2016

NOTE: "FAIR" INDICATES FEW OR NO CLOUDS BELOW 12,000 FEET WITH
NO SIGNIFICANT WEATHER AND/OR OBSTRUCTIONS TO VISIBILITY.

* THESE REPORTS ARE NOT UNDER NWS QUALITY CONTROL AND MAY NOT
  REPORT WEATHER SUCH AS PRECIPITATION AND FOG.

KYZ079-080-083-085-087-088-110-112-115-119-120-070200
...EASTERN KENTUCKY...

CITY           SKY/WX    TMP DP  RH WIND       PRES   REMARKS
JACKSON        PTCLDY    61  39  44 NW5       29.89R
LONDON         PTCLDY    60  43  53 W3        29.92R
SOMERSET*      CLEAR     61  37  41 CALM      29.94R
MONTICELLO*    PTCLDY    56  46  69 NW5       29.95R
WILLIAMSBURG*  CLEAR     57  43  58 CALM      29.93R
MIDDLESBORO*   PTCLDY    57  44  62 NW3       29.92R
HARLAN APT*      N/A     59  36  41 W3        29.91R
HAZARD APT*    PTCLDY    61  39  44 W6        29.89R
PIKE CO APT*   CLOUDY    59  42  52 W6        29.87S
BIG SANDY APT* CLOUDY    62  41  46 CALM      29.87R
MOREHEAD APT*  PTCLDY    63  41  45 NW5       29.90S
$$

KYZ035-036-041-042-044-050-067-078-099-070200
...CENTRAL KENTUCKY...

CITY           SKY/WX    TMP DP  RH WIND       PRES   REMARKS
MT STERLING*   PTCLDY    59  45  58 NW5       29.91R
FLEMING/MASON* MOCLDY    63  41  45 NW5       29.89S
DANVILLE*      CLEAR     59  41  51 CALM      29.93S
RICHMOND*      CLEAR     61  41  48 W6        29.91R
LEXINGTON      CLEAR     60  39  45 W5        29.91R
FRANKFORT      CLEAR     58  43  57 CALM      29.90R
LOUISVILLE     PTCLDY    66  42  41 W8        29.91S
LEBANON*         N/A     61  45  55 CALM      29.93S
BOWLING GREEN  CLEAR     65  43  44 CALM      29.95S
$$

KYZ091>093-OHZ055-061-077-WVZ005-015-034-035-042-070200
...SOUTHERN OHIO/WEST VIRGINIA...

CITY           SKY/WX    TMP DP  RH WIND       PRES   REMARKS
COVINGTON      PTCLDY    61  40  45 NW6       29.89R
COLUMBUS       PTCLDY    60  39  45 N6        29.86R
DAYTON         PTCLDY    61  39  44 NW5       29.88S
WILMINGTON     CLEAR     61  42  49 N5        29.88R
HUNTINGTON     MOCLDY    63  37  38 CALM      29.85R
CHARLESTON       N/A     62  39  42 W7        29.82R
PINEVILLE*       N/A     50  46  85 MISG      29.90R
BECKLEY        CLOUDY    55  37  50 NW10      29.84R
$$

VAZ002-007-008-TNZ017-027-036-066-071-070200
...SOUTHWEST VIRGINIA/EAST TENNESSEE...

CITY           SKY/WX    TMP DP  RH WIND       PRES   REMARKS
WISE*            N/A     54  34  47 W5        29.91S
BRISTOL        MOCLDY    61  38  42 W7        29.89R
SEVIERVILLE*   MOCLDY    61  43  51 CALM      29.91R
KNOXVILLE      MOCLDY    64  42  44 NW6       29.92R
OAK RIDGE      PTCLDY    63  40  42 CALM      29.94R
CROSSVILLE     CLEAR     59  39  47 NW6       29.97R
NASHVILLE      PTCLDY    66  41  40 NW3       29.96S
$$

...KEY TO REMARKS...
VSB - VISIBILITY IN MILES
WCI - WIND CHILL INDEX
HX  - HEAT INDEX

$$




USA.gov is the U.S. government's official web portal to all federal, state and local government web resources and services.